This is the latest recevied weather packets stored in our database for station/object IZ1RFL-3. If no packets are shown the sender has not sent any weather packets the latest 10 day(s).
| Time | Temp. | Humidity | Pressure | Rain* | Wind** | Luminosity | Snow |
|---|---|---|---|---|---|---|---|
| 1788568053 | 23.89° C | 68% | 1018.1 hPa | - | - | - | - |
| 1788567153 | 24.44° C | 66% | 1018.1 hPa | - | - | - | - |
| 1788566253 | 24.44° C | 65% | 1018.2 hPa | - | - | - | - |
| 1788565353 | 25° C | 63% | 1018.2 hPa | - | - | - | - |
| 1788564453 | 25° C | 63% | 1018.1 hPa | - | - | - | - |
| 1788563553 | 25° C | 60% | 1018 hPa | - | - | - | - |
| 1788562654 | 25.56° C | 59% | 1018.2 hPa | - | - | - | - |
| 1788561753 | 25.56° C | 57% | 1018 hPa | - | - | - | - |
| 1788560853 | 26.11° C | 56% | 1018.1 hPa | - | - | - | - |
| 1788559953 | 26.67° C | 54% | 1018.1 hPa | - | - | - | - |
| 1788559053 | 26.11° C | 56% | 1018 hPa | - | - | - | - |
| 1788558153 | 26.11° C | 56% | 1018 hPa | - | - | - | - |
| 1788557253 | 26.67° C | 54% | 1018 hPa | - | - | - | - |
| 1788556353 | 27.22° C | 53% | 1018 hPa | - | - | - | - |
| 1788555453 | 27.22° C | 53% | 1018 hPa | - | - | - | - |
| 1788554553 | 26.67° C | 54% | 1018.1 hPa | - | - | - | - |
| 1788553653 | 27.22° C | 52% | 1018.3 hPa | - | - | - | - |
| 1788552753 | 27.78° C | 52% | 1018.2 hPa | - | - | - | - |
| 1788551853 | 27.78° C | 51% | 1018.1 hPa | - | - | - | - |
| 1788550953 | 28.33° C | 50% | 1018.1 hPa | - | - | - | - |
| 1788550053 | 28.89° C | 49% | 1018 hPa | - | - | - | - |
| 1788549153 | 28.33° C | 49% | 1017.8 hPa | - | - | - | - |
| 1788548254 | 28.89° C | 47% | 1017.8 hPa | - | - | - | - |
| 1788547353 | 28.89° C | 47% | 1017.4 hPa | - | - | - | - |
| 1788546453 | 29.44° C | 47% | 1017.3 hPa | - | - | - | - |
* Rain since midnight (hover to see other rain measurements)
** Current wind speed in m/s (hover to see current wind gust speed)